Miscellaneous Local Product
Issued by NWS Hastings, NE

Home | Current Version | Previous Version | Graphics & Text | Print | Product List | Glossary On
Versions: 1 2 3 4 5 6 7 8 9 10 11 12 13 14 15 16 17 18 19 20 21 22 23 24 25 26 27 28 29 30 31 32 33 34 35 36 37 38 39 40 41 42 43 44 45 46 47 48 49 50
000
AXUS43 KGID 130402
MISGRI

GID CWA HOURLY WEATHER ROUNDUP
NATIONAL WEATHER SERVICE HASTINGS NE
1100 PM CDT FRI SEP 12 2014

NOTE: "FAIR" INDICATES FEW OR NO CLOUDS BELOW 12,000 FEET WITH NO
SIGNIFICANT WEATHER AND/OR OBSTRUCTIONS TO VISIBILITY.

...SOUTH CENTRAL NEBRASKA...

CITY           SKY/WX    TMP DP  RH WIND       PRES   REMARKS
GRAND ISLAND   CLEAR     40  37  89 SW3       30.42F
HASTINGS       CLEAR     40  37  89 SW3       30.42S
KEARNEY        CLEAR     41  37  87 SW8       30.42S
ORD            CLEAR     40  37  89 S3        30.38F
YORK           CLEAR     39  39 100 W3        30.42S
AURORA         CLEAR     40  39  96 CALM      30.42S
LEXINGTON      CLEAR     40  37  89 W3        30.41S
HOLDREGE       CLEAR     43  37  80 CALM      30.41F
HEBRON         CLEAR     38  37  92 CALM      30.44S

...NEBRASKA PANHANDLE...

CITY           SKY/WX    TMP DP  RH WIND       PRES   REMARKS
CHADRON        CLEAR     45  35  68 S12       30.23F
ALLIANCE       CLEAR     37  33  85 S12       30.29F WCI  29
SCOTTSBLUFF    CLEAR     42  35  76 SE10      30.28F
SIDNEY         CLEAR     37  33  85 S10       30.33F WCI  30

...WESTERN AND NORTH CENTRAL NEBRASKA...

CITY           SKY/WX    TMP DP  RH WIND       PRES   REMARKS
VALENTINE      CLEAR     42  34  73 S12       30.33F
AINSWORTH      CLEAR     35  32  89 S6        30.35F WCI  30
ONEILL         CLEAR     41  37  86 S3        30.38F
BROKEN BOW     CLEAR     35  33  92 CALM      30.38F
IMPERIAL       CLEAR     39  34  82 S7        30.39F WCI  34
NORTH PLATTE   CLEAR     34  32  92 CALM      30.39F
MCCOOK         CLEAR     38  33  82 SW6       30.42F WCI  33

...EASTERN NEBRASKA...

CITY           SKY/WX    TMP DP  RH WIND       PRES   REMARKS
NORFOLK        CLEAR     41  38  89 S7        30.40F
SO SIOUX CITY  CLEAR     42  40  92 CALM      30.40F
TEKAMAH        CLEAR     43  40  89 CALM      30.41S
ALBION         CLEAR     38  36  90 CALM      30.40F
OMAHA EPPLEY   CLEAR     47  43  86 CALM      30.42S
OFFUTT AFB     CLEAR     42  42  99 CALM      30.41S
MILLARD        FOG       43  42  97 CALM      30.41S VSB 3/4
LINCOLN        CLEAR     42  39  89 CALM      30.43S
NEBRASKA CITY  CLEAR     43  40  89 W6        30.42S
BEATRICE       CLEAR     40  38  94 CALM      30.42S FOG
FALLS CITY     CLEAR     43  42  97 NW6       30.42R

...NORTHERN KANSAS...

CITY           SKY/WX    TMP DP  RH WIND       PRES   REMARKS
GOODLAND       PTCLDY    38  33  82 S6        30.42F WCI  33
HILL CITY      MOCLDY    43  38  82 CALM      30.44F
NORTON         CLEAR     36  30  80 SW6       30.42S WCI  31
PHILLIPSBURG   CLEAR     43  39  87 SW5       30.44S
SMITH CENTER   CLEAR     39  37  93 CALM      30.45R
BELOIT         CLEAR     37  37 100 CALM      30.43S
HAYS           CLEAR     39  34  81 CALM      30.45R
RUSSELL        CLEAR     42  39  89 CALM      30.44R
CONCORDIA      CLEAR     41  40  96 CALM      30.44R
SALINA         PTCLDY    49  41  74 N3        30.44S
TOPEKA         CLEAR     45  44  97 CALM      30.43R



USA.gov is the U.S. government's official web portal to all federal, state and local government web resources and services.